Погода в Красноталовском

Россия / Волгоградская область     50°47′12″N   43°30′29″E
темп.,
°C
ветер,
м/с
пор.,
м/с
влажн.,
%
обл.,
%
осадки,
мм/ч
давл.,
гПа
погр.,
м
16 июня, ср
ср1600:00+17зсз22915 0.0 100820
03:00+16зюз34955 0.0 100975
06:00+18з359216 0.0 1009183
09:00+22з45755 0.0 1010724
12:00+25з566213 0.1 10111514
15:00+27зсз465510 0.3 10111861
18:00+25сз35680 0.1 1011318
21:00+20с22850 0.1 101320
17 июня, чт
чт1700:00+18с33910 0.0 101429
03:00+17ссв35930 0.0 101474
06:00+19св47875 0.0 1015220
09:00+23св57711 0.0 1016681
12:00+26св67624 0.0 10171338
15:00+26св775924 0.0 10171667
18:00+23св697232 0.1 1019538
21:00+19св613760 0.1 1019352
18 июня, пт
пт1800:00+16св513740 0.0 1021359
03:00+13св410830 0.0 1023209
06:00+15св510810 0.0 1023276
09:00+20св68620 0.0 1023793
12:00+23всв67553 0.0 10241539
15:00+24всв67515 0.0 10241716
18:00+22всв57635 0.0 1024593
21:00+17всв48740 0.0 1025126
19 июня, сб
сб1900:00+15в411820 0.0 1027216
03:00+13всв48780 0.0 1028146
06:00+14всв49770 0.0 1029254
09:00+19в68565 0.0 1029862
12:00+22в574645 0.0 10281202
15:00+23в56461 0.0 10271355
18:00+22всв46590 0.0 1026373
21:00+17в34780 0.0 102755
20 июня, вс
вс2000:00+15в33760 0.0 102730
03:00+14всв33760 0.0 102741
06:00+16всв37780 0.0 1027153
09:00+22в46590 0.0 1026677
12:00+26в45470 0.0 10251324
15:00+27в45430 0.0 10231539
18:00+26в36590 0.0 1022223
21:00+20в46700 0.0 102379